Regional Weather Roundup
Issued by NWS

Home | Current Version | Previous Version | Text Only | Print | Product List | Glossary Off
Versions: 1 2 3 4 5 6 7 8 9 10 11 12 13 14 15 16 17 18 19 20 21 22 23 24 25 26 27 28 29 30 31 32 33 34 35 36 37 38 39 40 41 42 43 44 45 46 47 48 49 50

000
ASUS43 KOAX 181302
RWRNE

WEATHER ROUNDUP FOR NEBRASKA
NATIONAL WEATHER SERVICE OMAHA NE
800 AM CDT WED OCT 18 2017

NOTES: SATELLITE DATA IS BEING USED TO AUGMENT CLOUD COVER ABOVE
       12000 FEET.
       "FAIR" INDICATES FEW OR NO CLOUDS BELOW 12,000 FEET WITH NO
       SIGNIFICANT WEATHER AND/OR OBSTRUCTIONS TO VISIBILITY.


NEZ001>004-019>022-054>056-181400-
NEBRASKA PANHANDLE

CITY           SKY/WX    TMP DP  RH WIND       PRES   REMARKS
SCOTTSBLUFF    PTCLDY    47  22  37 W9        29.99R
ALLIANCE       CLOUDY    34  22  61 SW8       29.98R WCI  27
CHADRON        PTCLDY    40  23  50 S6        29.94R
GORDON         FAIR      47  26  43 W6        29.94R
KIMBALL        CLOUDY    52  19  27 W12       30.05S
SIDNEY         CLOUDY    45  21  38 W13       30.03R
$$

NEZ057>060-069>072-079>082-181400-
SOUTHWEST NEBRASKA

CITY           SKY/WX    TMP DP  RH WIND       PRES   REMARKS
NORTH PLATTE   PTCLDY    39  35  86 NW7       29.93R WCI  34
IMPERIAL       PTCLDY    47  29  49 W8        29.96S
LEXINGTON      CLOUDY    46  38  74 SW3       29.90S
MCCOOK         PTCLDY    42  35  76 W10       29.93S
OGALLALA       PTCLDY    39  30  71 CALM      29.97R
$$

NEZ005>010-023>029-035>040-094-181400-
NORTH CENTRAL NEBRASKA

CITY           SKY/WX    TMP DP  RH WIND       PRES   REMARKS
VALENTINE      CLEAR     48  27  44 W10       29.85R
AINSWORTH      CLOUDY    54  29  38 W10       29.84R
BROKEN BOW     PTCLDY    55  33  43 W10       29.87S
O`NEILL        PTCLDY    49  39  68 SW8       29.80F
ORD            CLOUDY    45  39  79 CALM      29.84S
THEDFORD       PTCLDY    51  27  39 W8        29.89S
$$

NEZ041-046>049-061>064-073>077-083>087-181400-
SOUTH CENTRAL NEBRASKA

CITY           SKY/WX    TMP DP  RH WIND       PRES   REMARKS
GRAND ISLAND   CLOUDY    48  44  86 S7        29.89F
AURORA         CLOUDY    47  42  84 S8        29.90S
HASTINGS       CLOUDY    46  40  79 S8        29.92S
HEBRON         CLOUDY    47  44  88 S5        29.95S
HOLDREGE       PTCLDY    47  42  81 CALM      29.91S
KEARNEY        PTCLDY    47  41  80 SW10      29.90F
YORK           MOCLDY    46  45  93 S9        29.92F
$$

NEZ011>018-030>034-042>045-181400-
NORTHEAST NEBRASKA

CITY           SKY/WX    TMP DP  RH WIND       PRES   REMARKS
NORFOLK        CLEAR     50  44  80 S10       29.82F
ALBION         PTCLDY    47  43  84 SE6       29.86S
BLAIR          CLEAR     50  45  83 S13       29.92S
COLUMBUS       CLEAR     52  43  71 S10       29.89F
FREMONT        CLEAR     52  44  76 S12G17    29.91F
TEKAMAH        CLEAR     46  43  89 SE7       29.90F
WAYNE          CLOUDY    50  47  89 S13       29.83F
$$

NEZ050>053-065>068-078-088>093-181400-
SOUTHEAST NEBRASKA

CITY           SKY/WX    TMP DP  RH WIND       PRES   REMARKS
LINCOLN        CLEAR     51  44  77 S5        29.95S
OMAHA EPPLEY   PTCLDY    50  44  80 S14       29.93F
BEATRICE       CLEAR     50  46  83 S10       29.95F
FALLS CITY     CLEAR     47  43  86 CALM      29.99R
NEBRASKA CITY  CLEAR     47  47  98 S8        29.97S
PLATTSMOUTH    CLEAR     47  46  93 SE9       29.95S
$$

NEZ044-045-051>053-067-181400-
OMAHA AREA

CITY           SKY/WX    TMP DP  RH WIND       PRES   REMARKS
OMAHA EPPLEY   PTCLDY    50  44  80 S14       29.93F
BLAIR          CLEAR     50  45  83 S13       29.92S
FREMONT        CLEAR     52  44  76 S12G17    29.91F
MILLARD        CLEAR     48  45  90 SE7       29.94S
OFFUTT AFB     CLEAR     46  43  89 E6        29.94F
PLATTSMOUTH    CLEAR     47  46  93 SE9       29.95S
WAHOO          FAIR      45  43  93 S6        29.92F
$$




USA.gov is the U.S. government's official web portal to all federal, state and local government web resources and services.